Flag for Australia Weather past 2 weeks in Mildura, Victoria, Australia

Now
47 °F

Cool.


Feels Like: 45 °F
Forecast: 54 / 71 °F
Wind: 5 mph from Northwest

Location: Mildura Airport


UV Index: 3 (Moderate)

Visibility: N/A


Pressure: 29.98 "Hg

Humidity: 81%

Dew point: 41 °F

Location of MilduraLocation

Historic Weather in Mildura

°F

Mildura temperature yesterday

Maximum temperature yesterday: 71 °F (at 3:00 PM)
Minimum temperature yesterday: 48 °F (at 7:00 AM)
Average temperature yesterday: 60 °F

Past Weeks' High & Low Weather Summary

 TemperatureHumidityPressure
High79 °F (Apr 22, 12:00 PM)98% (Apr 9, 9:00 PM)30.22 "Hg (Apr 9, 9:00 PM)
Low43 °F (Apr 19, 6:00 AM)29% (Apr 21, 3:00 PM)29.73 "Hg (Apr 10, 4:00 PM)
Average62 °F68%30.04 "Hg
* Reported Apr 9 5:00 AM — Apr 24 5:00 AM, Mildura, Weather by CustomWeather, © 2014

Note: Actual official high and low records may vary slightly from our data, if they occured in-between our weather recording intervals... More about our weather records

Advertising

Historic Weather Conditions — Data for Previous 24 hours

 ConditionsComfort  
Time TempWeatherWind HumidityBarometerVisibility
5:00 AM
Apr 24
47 °FCool.5 mph81%29.98 "HgN/A
4:00 AM47 °FCool.3 mph81%29.96 "HgN/A
3:00 AM49 °FPassing clouds.2 mph76%29.96 "HgN/A
2:00 AM49 °FCool.5 mph79%29.96 "HgN/A
1:00 AM51 °FCool.No wind78%29.96 "HgN/A
12:00 AM52 °FPassing clouds.No wind74%29.96 "HgN/A
11:00 PM
Apr 23
54 °FCool.3 mph73%29.97 "HgN/A
10:00 PM58 °FRefreshingly cool.5 mph58%29.97 "HgN/A
9:00 PM59 °FPassing clouds.3 mph61%29.98 "HgN/A
8:00 PM60 °FRefreshingly cool.No wind55%29.97 "HgN/A
7:00 PM61 °FRefreshingly cool.5 mph58%29.96 "HgN/A
6:00 PM65 °FMild.3 mph46%29.95 "HgN/A
5:00 PM69 °FMild.3 mph38%29.95 "HgN/A
4:00 PM71 °FMild.5 mph30%29.96 "HgN/A
3:00 PM71 °FOvercast.5 mph31%29.96 "Hg25 mi
2:00 PM71 °FMild.6 mph33%29.97 "HgN/A
1:00 PM69 °FMild.8 mph38%29.99 "HgN/A
12:00 PM69 °FOvercast.5 mph43%30.02 "Hg25 mi
11:00 AM66 °FMild.7 mph56%30.04 "HgN/A
10:00 AM62 °FCool.7 mph66%30.06 "HgN/A
9:00 AM56 °FPassing clouds.9 mph70%30.06 "Hg25 mi
8:00 AM51 °FCool.5 mph82%30.04 "HgN/A
7:00 AM48 °FCool.3 mph89%30.03 "HgN/A
6:00 AM50 °FPassing clouds.5 mph85%30.03 "Hg25 mi
Weather by CustomWeather, © 2014

See weather overview